When you browse on this site, cookies collect data to enhance your experience and personalize the content and advertising you see.
Visit our Privacy Policy to learn more. By continuing to use the site, you agree to this use of cookies and data.

Previsão horária em Shilovka

Hoje, 12 Julho, Domingo

Tempo Temperatura Precipitação Vento Pressão Humidade
00:00 +18°C° 0.1 mm 2 m/s 747 mmHg 95%
01:00 +17°C° 0.1 mm 2 m/s 747 mmHg 93%
02:00 +15°C° 0 mm 2 m/s 747 mmHg 92%
03:00 +15°C° 0.1 mm 2 m/s 747 mmHg 92%
04:00 +15°C° 0.1 mm 2 m/s 747 mmHg 91%
05:00 +14°C° 0.1 mm 2 m/s 748 mmHg 91%
06:00 +14°C° 0.7 mm 2 m/s 748 mmHg 92%
07:00 +13°C° 0.7 mm 3 m/s 748 mmHg 93%
08:00 +13°C° 0.7 mm 3 m/s 748 mmHg 94%
09:00 +14°C° 0.1 mm 3 m/s 748 mmHg 91%
10:00 +16°C° 0.1 mm 3 m/s 748 mmHg 87%
11:00 +17°C° 0.1 mm 3 m/s 748 mmHg 84%
12:00 +16°C° 0.1 mm 3 m/s 748 mmHg 86%
13:00 +16°C° 0.1 mm 3 m/s 748 mmHg 88%
14:00 +14°C° 0.1 mm 4 m/s 748 mmHg 89%
15:00 +14°C° 0 mm 3 m/s 747 mmHg 89%
16:00 +14°C° 0 mm 3 m/s 747 mmHg 89%
17:00 +14°C° 0 mm 3 m/s 747 mmHg 89%
18:00 +14°C° 0 mm 3 m/s 747 mmHg 89%
19:00 +13°C° 0 mm 3 m/s 747 mmHg 89%
20:00 +13°C° 0 mm 3 m/s 747 mmHg 89%
21:00 +13°C° 0 mm 3 m/s 746 mmHg 90%
22:00 +13°C° 0 mm 3 m/s 746 mmHg 90%
23:00 +13°C° 0 mm 3 m/s 746 mmHg 91%

Amanhã, 13 Julho, Segunda-feira

Tempo Temperatura Precipitação Vento Pressão Humidade
00:00 +12°C° 0.6 mm 3 m/s 746 mmHg 93%
01:00 +12°C° 0.6 mm 3 m/s 746 mmHg 95%
02:00 +12°C° 0.6 mm 3 m/s 745 mmHg 97%
03:00 +12°C° 0.4 mm 3 m/s 745 mmHg 97%
04:00 +12°C° 0.4 mm 3 m/s 745 mmHg 97%
05:00 +12°C° 0.4 mm 3 m/s 744 mmHg 97%
06:00 +12°C° 0.1 mm 3 m/s 745 mmHg 97%
07:00 +13°C° 0.1 mm 3 m/s 745 mmHg 96%
08:00 +13°C° 0.1 mm 3 m/s 745 mmHg 96%
09:00 +13°C° 0 mm 3 m/s 745 mmHg 95%
10:00 +13°C° 0 mm 4 m/s 745 mmHg 94%
11:00 +13°C° 0 mm 4 m/s 744 mmHg 93%
12:00 +14°C° 0 mm 3 m/s 744 mmHg 92%
13:00 +14°C° 0 mm 3 m/s 744 mmHg 91%
14:00 +14°C° 0 mm 3 m/s 745 mmHg 90%
15:00 +14°C° 0.1 mm 3 m/s 744 mmHg 91%
16:00 +13°C° 0.1 mm 3 m/s 744 mmHg 93%
17:00 +13°C° 0.1 mm 3 m/s 744 mmHg 94%
18:00 +13°C° 0 mm 3 m/s 744 mmHg 95%
19:00 +13°C° 0 mm 3 m/s 743 mmHg 95%
20:00 +13°C° 0 mm 2 m/s 743 mmHg 96%
21:00 +13°C° 0 mm 2 m/s 743 mmHg 96%
22:00 +13°C° 0 mm 2 m/s 743 mmHg 96%
23:00 +13°C° 0 mm 2 m/s 743 mmHg 96%

Depois de amanhã, 14 Julho, Terça-feira

Tempo Temperatura Precipitação Vento Pressão Humidade
00:00 +12°C° 0 mm 2 m/s 743 mmHg 96%
01:00 +12°C° 0 mm 2 m/s 743 mmHg 96%
02:00 +12°C° 0 mm 2 m/s 743 mmHg 97%
03:00 +12°C° 0 mm 2 m/s 743 mmHg 96%
04:00 +13°C° 0 mm 2 m/s 743 mmHg 95%
05:00 +13°C° 0 mm 2 m/s 743 mmHg 94%
06:00 +13°C° 0 mm 3 m/s 743 mmHg 90%
07:00 +14°C° 0 mm 3 m/s 743 mmHg 86%
08:00 +17°C° 0 mm 4 m/s 743 mmHg 82%
09:00 +18°C° 0 mm 4 m/s 743 mmHg 76%
10:00 +19°C° 0 mm 4 m/s 743 mmHg 69%
11:00 +21°C° 0 mm 4 m/s 743 mmHg 62%
12:00 +21°C° 0 mm 4 m/s 743 mmHg 64%
13:00 +20°C° 0 mm 3 m/s 743 mmHg 66%
14:00 +20°C° 0 mm 3 m/s 743 mmHg 68%
15:00 +20°C° 0 mm 3 m/s 743 mmHg 70%
16:00 +20°C° 0 mm 3 m/s 742 mmHg 71%
17:00 +20°C° 0 mm 3 m/s 742 mmHg 72%
18:00 +19°C° 0 mm 3 m/s 742 mmHg 73%
19:00 +18°C° 0 mm 4 m/s 741 mmHg 74%
20:00 +18°C° 0 mm 4 m/s 741 mmHg 75%
21:00 +17°C° 0 mm 4 m/s 741 mmHg 78%
22:00 +15°C° 0 mm 4 m/s 740 mmHg 80%
23:00 +14°C° 0 mm 3 m/s 740 mmHg 83%

15 Julho, Quarta-feira

Tempo Temperatura Precipitação Vento Pressão Humidade
00:00 +15°C° 0.1 mm 4 m/s 740 mmHg 82%
01:00 +15°C° 0.1 mm 4 m/s 740 mmHg 81%
02:00 +15°C° 0.1 mm 5 m/s 740 mmHg 80%
03:00 +14°C° 0.8 mm 5 m/s 740 mmHg 83%
04:00 +13°C° 0.8 mm 5 m/s 739 mmHg 86%
05:00 +13°C° 0.8 mm 6 m/s 739 mmHg 89%
06:00 +11°C° 0.6 mm 6 m/s 739 mmHg 90%
07:00 +11°C° 0.6 mm 6 m/s 739 mmHg 92%
08:00 +10°C° 0.6 mm 6 m/s 739 mmHg 93%
09:00 +10°C° 0.5 mm 6 m/s 739 mmHg 93%
10:00 +11°C° 0.5 mm 6 m/s 739 mmHg 94%
11:00 +11°C° 0.5 mm 6 m/s 739 mmHg 95%
12:00 +11°C° 0.7 mm 6 m/s 739 mmHg 95%
13:00 +11°C° 0.7 mm 7 m/s 739 mmHg 95%
14:00 +10°C° 0.7 mm 7 m/s 740 mmHg 95%
15:00 +11°C° 0.4 mm 7 m/s 740 mmHg 95%
16:00 +11°C° 0.4 mm 7 m/s 739 mmHg 95%
17:00 +11°C° 0.4 mm 7 m/s 739 mmHg 95%
18:00 +11°C° 0.3 mm 7 m/s 739 mmHg 95%
19:00 +11°C° 0.3 mm 7 m/s 739 mmHg 96%
20:00 +11°C° 0.3 mm 6 m/s 739 mmHg 96%
21:00 +11°C° 0.3 mm 6 m/s 739 mmHg 96%
22:00 +11°C° 0.3 mm 6 m/s 739 mmHg 96%
23:00 +12°C° 0.3 mm 5 m/s 738 mmHg 96%

16 Julho, Quinta-feira

Tempo Temperatura Precipitação Vento Pressão Humidade
00:00 +12°C° 0.4 mm 5 m/s 738 mmHg 96%
01:00 +12°C° 0.4 mm 5 m/s 738 mmHg 96%
02:00 +12°C° 0.4 mm 5 m/s 738 mmHg 96%
03:00 +12°C° 1.1 mm 5 m/s 738 mmHg 97%
04:00 +12°C° 1.1 mm 5 m/s 737 mmHg 97%
05:00 +11°C° 1.1 mm 6 m/s 737 mmHg 97%
06:00 +12°C° 1.1 mm 5 m/s 737 mmHg 97%
07:00 +12°C° 1.1 mm 5 m/s 737 mmHg 97%
08:00 +12°C° 1.1 mm 5 m/s 737 mmHg 97%
09:00 +12°C° 0.8 mm 5 m/s 738 mmHg 97%
10:00 +12°C° 0.8 mm 5 m/s 738 mmHg 96%
11:00 +12°C° 0.8 mm 5 m/s 738 mmHg 96%
12:00 +12°C° 0.3 mm 5 m/s 738 mmHg 96%
13:00 +13°C° 0.3 mm 5 m/s 738 mmHg 95%
14:00 +13°C° 0.3 mm 5 m/s 738 mmHg 94%
15:00 +13°C° 0 mm 4 m/s 738 mmHg 94%
16:00 +13°C° 0 mm 3 m/s 738 mmHg 94%
17:00 +14°C° 0 mm 2 m/s 738 mmHg 94%
18:00 +14°C° 0 mm 2 m/s 739 mmHg 94%
19:00 +14°C° 0 mm 2 m/s 739 mmHg 94%
20:00 +14°C° 0 mm 2 m/s 739 mmHg 95%
21:00 +13°C° 0 mm 2 m/s 739 mmHg 95%
22:00 +12°C° 0 mm 2 m/s 739 mmHg 96%
23:00 +12°C° 0 mm 2 m/s 739 mmHg 96%

17 Julho, Sexta-feira

Tempo Temperatura Precipitação Vento Pressão Humidade
00:00 +12°C° 0 mm 2 m/s 739 mmHg 96%
01:00 +10°C° 0 mm 2 m/s 739 mmHg 96%
02:00 +10°C° 0 mm 2 m/s 739 mmHg 97%
03:00 +10°C° 0 mm 3 m/s 739 mmHg 97%
04:00 +10°C° 0 mm 3 m/s 739 mmHg 97%
05:00 +11°C° 0 mm 3 m/s 739 mmHg 97%
06:00 +12°C° 0 mm 3 m/s 739 mmHg 93%
07:00 +13°C° 0 mm 3 m/s 740 mmHg 89%
08:00 +14°C° 0 mm 3 m/s 740 mmHg 86%
09:00 +14°C° 0 mm 3 m/s 740 mmHg 82%
10:00 +16°C° 0 mm 3 m/s 740 mmHg 79%
11:00 +16°C° 0 mm 3 m/s 740 mmHg 75%
12:00 +17°C° 0 mm 3 m/s 741 mmHg 72%
13:00 +18°C° 0 mm 2 m/s 741 mmHg 70%
14:00 +19°C° 0 mm 2 m/s 741 mmHg 67%
15:00 +19°C° 0 mm 2 m/s 741 mmHg 68%
16:00 +18°C° 0 mm 2 m/s 741 mmHg 70%
17:00 +18°C° 0 mm 2 m/s 741 mmHg 71%
18:00 +17°C° 0 mm 2 m/s 741 mmHg 76%
19:00 +16°C° 0 mm 2 m/s 741 mmHg 81%
20:00 +14°C° 0 mm 2 m/s 741 mmHg 86%
21:00 +14°C° 0 mm 2 m/s 741 mmHg 87%
22:00 +14°C° 0 mm 2 m/s 741 mmHg 88%
23:00 +14°C° 0 mm 2 m/s 741 mmHg 89%
Mostrar mais